Find Starlink 11531

NORAD ID: 62841 Int'l Des: 2025-019 Owner: SPXS Country: US Constellation: starlink operational
LEOCIRCULAR

Live Position

Loading 3D Globe...

About Starlink 11531

Description loading...

Upcoming Passes

Passes for default location (London). Set your location on the main map for personalized predictions.

Altitude History

Loading altitude history...

Two-Line Element Set

1 62841U 25019N 26121.68405444 .00214977 00000-0 16274-2 0 9997
2 62841 42.9995 346.7035 0002619 250.3023 109.7563 15.70962880 72211
Epoch: May 1, 2026 • Age: 12 hours

Current Status

Altitude 356.0 km
Velocity 7.70 km/s
Sub-Earth Point 19.39°N, 74.34°E
Launch Date Jan 27, 2025
Age 1.2 years
Type internet

Technical Details

Classification Payload
Mass 960.00 kg
Dry Mass 910.00 kg
Total Mass 960.00 kg
Length 0.30 m
Diameter 4.10 m
Span 29.00 m
Shape Box + pan
Manufacturer SPXS
Bus Type Starlink V2MD
Phase Status In Orbit
Owner/State SPXS/US

Most Searched